STARLINK-32049, 60199

Orbit data source: Space-Track

STARLINK-32049, 60199 is a payload satellite owned by SpaceX/Seattle (US) in LEO that was launched on Wed, 03 Jul 2024 UTC via an FALCON 9 launch vehicle from the Air Force Eastern Test Range (AFETR). Payload-class satellites include a variety of spacecraft equipped with specific instruments for various scientific and technological missions. These include communications satellites like Starlink; space stations such as the ISS; scientific satellites like the Hubble; Earth observation satellites from companies like Planet Labs, Umbra, and HawkEye 360; GPS; miniature CubeSats for education and research; and military/defense satellites.

Loading next visibility...
Identifier
60199, 2024-124S
Orbit
LEO
Country
Flag of USUS
Related business
Manufacturer
SpaceX/Seattle
Mission
Operational Commercial Communications
Bus & Motor
STARLINK V2M, Unknown motor
Mass
730 kg wet, ~700 kg dry
Launch date (UTC)
2024-07-03 (1 year ago)
Launch vehicle
FALCON 9
Launch site
Air Force Eastern Test Range (AFETR)
Object type
Payload
Rocket body
Debris
Shape & HBR
Box + 2 Pan, 17.7 m
Radar Cross Section
33.884 m², Large (>1 m²)

Expand to show TLE details & history
Last TLE update: 15 hours ago

TLE from 15 hours ago
0 STARLINK-32049
1 60199U 24124S   25289.15204308  .00000637  00000-0  33639-4 0  9991
2 60199  53.1596 274.0500 0001343  90.9112 269.2043 15.30190057 73396
Epoch: 2025-10-16T03:38Z
TLE epoch observation values (Epoch: 2025-10-16T03:38:56.522Z)
Latitude
0.00003°
Longitude
-165.60136°
Altitude
476.157 km
Speed
7.629 km/s
True Right ascension
18h 16m 12s
True Declination
0° 00' 00"
Sunlit
Object was in daylight at epoch
Visualization orbit readout
Latitude
Unknown
Longitude
Unknown
Altitude
Unknown
Speed
Unknown
Apparent Right ascension
Unknown
Apparent Declination
Unknown
Sunlit
N/A
Visualization observer readout
Local Sidereal Time
13:19:16
Azimuth
Unknown
Elevation
Unknown
Doppler factor
Unknown
Orbital elements
Apogee altitude
476.422 km
Perigee altitude
474.581 km
Semi-major axis
6,853.638 km
Eccentricity
0.00013
Inclination
53.1596°
RAAN
274.05°
Arg. of periapsis
90.9112°
True anomaly
269.18891°
Mean anomaly
269.2043°
Eccentric anomaly
269.19661°
Mean motion
3.82526 °/min
Orbital period
94.11 mins
BSTAR
0.000033639
Loading maneuver chart data...
Computing Atmospheric mass density...
Loading historical data...
Loading historical data...
Loading historical data...
Loading historical data...
Loading historical data...
Loading historical data...
Loading historical data...

Documentation

Showing up to 5 results
|